Regional Weather Roundup
Issued by NWS

Home | Current Version | Previous Version | Graphics & Text | Print | Product List | Glossary On
Versions: 1 2 3 4 5 6 7 8 9 10 11 12 13 14 15 16 17 18 19 20 21 22 23 24 25 26 27 28 29 30 31 32 33 34 35 36 37 38 39 40 41 42 43 44 45 46 47 48 49 50
678
ASUS44 KLIX 012201
RWRLA
LOUISIANA WEATHER ROUNDUP
NATIONAL WEATHER SERVICE NEW ORLEANS LA
500 PM CDT WED OCT 01 2014

NOTE: "FAIR" INDICATES FEW OR NO CLOUDS BELOW 12,000 FEET WITH NO
      SIGNIFICANT WEATHER AND/OR OBSTRUCTIONS TO VISIBILITY.
      SKY/WX - SKY CONDITION AND SIGNIFICANT WEATHER.
      TMP - AIR TEMPERATURE.    DP   - DEWPOINT TEMPERATURE.
      RH  - RELATIVE HUMIDITY.  PRES - PRESSURE.
      HX  - HEAT INDEX.         WCI  - WIND CHILL INDEX.

*  THESE STATIONS ARE NOT NWS OR FAA STATIONS AND ARE NOT UNDER
   NWS QUALITY CONTROL.

LAZ040-048-061>063-065-066-069-012300-
SOUTHEAST LOUISIANA

CITY           SKY/WX    TMP DP  RH WIND       PRES   REMARKS
N.O. AUDUBON     N/A     84  76  76 MISG        N/A
N.O. INTL ARPT PTSUNNY   83  73  72 SE9       29.88F
N.O. LAKEFRONT CLOUDY    82  74  76 E12       29.89S
N.O. DOWNTOWN* MOCLDY    82  72  69 SE9       29.89F
SLIDELL        PTSUNNY   81  72  74 E5        29.89F
BATON ROUGE    CLOUDY    84  73  69 SE8       29.86F
BOOTHVILLE     CLOUDY    81  77  88 SE6       29.91R
BELLE CHASSE   PTSUNNY   82  73  74 SE12      29.88F
BOGALUSA*      MOCLDY    85  71  63 SE9       29.91S
GALLIANO*      NOT AVBL
NEW ROADS*     MOCLDY    85  74  70 SE7       29.85F
GONZALES*      MOCLDY    79  79 100 E3        29.87F
HAMMOND*       NOT AVBL
HOUMA*         PTSUNNY  N/A N/A N/A SE6       29.89R
PORT FOURCHON* PTCLDY    81  75  83 S6        29.92S

$$

LAZ041-044-053-054-012300-
SOUTHWEST LOUISIANA

CITY           SKY/WX    TMP DP  RH WIND       PRES   REMARKS
LAKE CHARLES   MOSUNNY   85  75  72 S8        29.81R
LAFAYETTE      RAIN      80  76  87 NW6       29.85R FOG
PATTERSON      PTSUNNY   79  75  89 S8G21     29.89F
SALT POINT       N/A     82  74  76 VRB5      29.85F
NEW IBERIA     MOSUNNY   86  77  74 S13       29.85S HX  97
CHENAULT AIRPK MOSUNNY   88  73  62 SE13      29.82R HX  96

$$

LAZ027-028-012300-
CENTRAL LOUISIANA

CITY           SKY/WX    TMP DP  RH WIND       PRES   REMARKS
FORT POLK      MOSUNNY   87  75  67 SE8       29.82S HX  96
ALEXANDRIA INT FAIR      87  72  60 SE9       29.81S
ALEXANDRIA     MOSUNNY   87  73  62 S8        29.83F

$$

LAZ001-002-012300-
NORTHWEST LOUISIANA

CITY           SKY/WX    TMP DP  RH WIND       PRES   REMARKS
SHREVEPORT     PTSUNNY   82  74  76 SE6       29.79F
BARKSDALE AFB  PTSUNNY   81  73  78 S5        29.80F
DTN SHREVEPORT PTSUNNY   79  72  79 SE6       29.80F

$$

LAZ014-016-012300-
NORTHEAST LOUISIANA

CITY           SKY/WX    TMP DP  RH WIND       PRES   REMARKS
MONROE         PTSUNNY   86  69  56 S7        29.84S
TALLULAH       MOSUNNY   90  67  46 S7        29.85S

$$




USA.gov is the U.S. government's official web portal to all federal, state and local government web resources and services.